| time (UTC) | temp F | wind direction | speed MPH | gust MPH | rain 1hr in | rain 24hr in | rain mn in | humidity % | barometer mb |
| 20260503215410 | 57 | 232 | 2.0 | 4.0 | 0.00 | 0.80 | 0.80 | 96 | 1010.3 |
| 20260503214410 | 57 | 229 | 1.0 | 4.0 | 0.00 | 0.80 | 0.80 | 96 | 1010.3 |
| 20260503213410 | 57 | 192 | 1.0 | 4.0 | 0.00 | 0.80 | 0.80 | 96 | 1010.2 |
| 20260503212410 | 57 | 175 | 1.0 | 4.0 | 0.00 | 0.80 | 0.80 | 96 | 1010.2 |
| 20260503211413 | 58 | 173 | 2.0 | 5.0 | 0.00 | 0.80 | 0.80 | 96 | 1010.2 |
| 20260503210411 | 58 | 188 | 3.0 | 5.0 | 0.00 | 0.80 | 0.80 | 96 | 1010.1 |
| 20260503205413 | 58 | 180 | 3.0 | 6.0 | 0.00 | 0.80 | 0.80 | 96 | 1010.1 |
| 20260503203410 | 58 | 190 | 2.0 | 5.0 | 0.02 | 0.80 | 0.80 | 96 | 1010.2 |
| 20260503202410 | 58 | 201 | 2.0 | 7.0 | 0.02 | 0.80 | 0.80 | 96 | 1010.2 |
| 20260503201410 | 58 | 178 | 2.0 | 7.0 | 0.02 | 0.80 | 0.80 | 96 | 1010.2 |
| 20260503200410 | 58 | 242 | 2.0 | 6.0 | 0.02 | 0.80 | 0.80 | 96 | 1010.2 |
| 20260503195410 | 59 | 159 | 4.0 | 11.0 | 0.02 | 0.80 | 0.80 | 96 | 1010.1 |
| 20260503193410 | 59 | 207 | 1.0 | 4.0 | 0.00 | 0.78 | 0.78 | 96 | 1009.9 |
| 20260503191410 | 59 | 196 | 3.0 | 5.0 | 0.00 | 0.78 | 0.78 | 96 | 1009.7 |
| 20260503190410 | 59 | 168 | 3.0 | 6.0 | 0.00 | 0.78 | 0.78 | 96 | 1009.6 |
| 20260503185410 | 59 | 208 | 2.0 | 6.0 | 0.00 | 0.78 | 0.78 | 96 | 1009.6 |
| 20260503184410 | 59 | 173 | 2.0 | 9.0 | 0.00 | 0.78 | 0.78 | 96 | 1009.6 |
| 20260503183410 | 59 | 191 | 2.0 | 5.0 | 0.00 | 0.78 | 0.78 | 96 | 1009.4 |
| 20260503182410 | 59 | 180 | 3.0 | 7.0 | 0.00 | 0.78 | 0.78 | 96 | 1009.3 |
| 20260503180410 | 59 | 164 | 3.0 | 5.0 | 0.00 | 0.78 | 0.78 | 96 | 1009.2 |
| 20260503175413 | 59 | 192 | 3.0 | 8.0 | 0.00 | 0.78 | 0.78 | 96 | 1009.2 |
| 20260503174413 | 59 | 213 | 5.0 | 8.0 | 0.02 | 0.78 | 0.78 | 96 | 1009.1 |
| 20260503171410 | 60 | 167 | 2.0 | 5.0 | 0.05 | 0.78 | 0.78 | 96 | 1009.1 |
| 20260503170413 | 60 | 159 | 3.0 | 6.0 | 0.05 | 0.78 | 0.78 | 96 | 1009.1 |
| 20260503131403 | 74 | 184 | 3.0 | 7.0 | 0.00 | 0.00 | 0.00 | 63 | 1008.0 |
| 20260503130403 | 74 | 178 | 7.0 | 11.0 | 0.00 | 0.00 | 0.00 | 62 | 1008.0 |
| 20260503110405 | 74 | 160 | 7.0 | 13.0 | 0.00 | 0.00 | 0.00 | 61 | 1009.1 |
| 20260503090402 | 69 | 113 | 3.0 | 7.0 | 0.00 | 0.00 | 0.00 | 70 | 1010.2 |
| 20260503080407 | 65 | 157 | 4.0 | 7.0 | 0.00 | 0.00 | 0.00 | 81 | 1010.8 |
| 20260503072407 | 64 | 165 | 3.0 | 6.0 | 0.00 | 0.00 | 0.00 | 82 | 1010.7 |
| 20260503071407 | 63 | 160 | 5.0 | 11.0 | 0.00 | 0.00 | 0.00 | 83 | 1010.7 |
| 20260503070407 | 63 | 127 | 3.0 | 7.0 | 0.00 | 0.00 | 0.00 | 85 | 1010.8 |
| 20260503054407 | 58 | 325 | 0.0 | 0.0 | 0.00 | 0.00 | 0.00 | 94 | 1010.7 |
| 20260503052407 | 58 | 325 | 0.0 | 0.0 | 0.00 | 0.00 | 0.00 | 94 | 1010.9 |
| 20260503051407 | 58 | 325 | 0.0 | 1.0 | 0.00 | 0.00 | 0.00 | 94 | 1010.8 |
| 20260503050407 | 57 | 325 | 0.0 | 1.0 | 0.00 | 0.00 | 0.00 | 94 | 1010.8 |
| 20260503044407 | 57 | 325 | 0.0 | 0.0 | 0.00 | 0.00 | 0.00 | 94 | 1010.9 |
| 20260503043407 | 57 | 325 | 1.0 | 2.0 | 0.00 | 0.00 | 0.00 | 94 | 1010.9 |
| 20260503042407 | 57 | 320 | 1.0 | 3.0 | 0.00 | 0.00 | 0.00 | 93 | 1010.9 |
| 20260503041407 | 57 | 167 | 2.0 | 4.0 | 0.00 | 0.00 | 0.00 | 93 | 1010.9 |
| 20260503040407 | 57 | 168 | 0.0 | 2.0 | 0.00 | 0.00 | 0.00 | 93 | 1011.2 |
| 20260503035407 | 57 | 168 | 0.0 | 0.0 | 0.00 | 0.00 | 0.00 | 93 | 1011.2 |
| 20260503034407 | 58 | 169 | 0.0 | 1.0 | 0.00 | 0.00 | 0.00 | 93 | 1011.4 |
| 20260503033407 | 58 | 169 | 0.0 | 2.0 | 0.00 | 0.00 | 0.00 | 92 | 1011.4 |
| 20260503032407 | 58 | 169 | 0.0 | 2.0 | 0.00 | 0.00 | 0.00 | 92 | 1011.4 |
| 20260503031407 | 58 | 168 | 2.0 | 4.0 | 0.00 | 0.00 | 0.00 | 92 | 1011.4 |
| 20260503030407 | 57 | 157 | 2.0 | 3.0 | 0.00 | 0.00 | 0.00 | 93 | 1011.6 |
| 20260503025407 | 57 | 160 | 2.0 | 7.0 | 0.00 | 0.00 | 0.00 | 92 | 1011.7 |
| 20260503024407 | 56 | 165 | 2.0 | 5.0 | 0.00 | 0.00 | 0.00 | 92 | 1011.8 |
| 20260503023410 | 56 | 130 | 1.0 | 3.0 | 0.00 | 0.00 | 0.00 | 92 | 1011.8 |
| 20260503022407 | 56 | 117 | 1.0 | 3.0 | 0.00 | 0.00 | 0.00 | 91 | 1011.5 |
| 20260503021407 | 56 | 114 | 1.0 | 2.0 | 0.00 | 0.00 | 0.00 | 91 | 1011.4 |
| 20260503015407 | 56 | 135 | 0.0 | 1.0 | 0.00 | 0.00 | 0.00 | 90 | 1011.6 |
| 20260503014407 | 56 | 135 | 0.0 | 1.0 | 0.00 | 0.00 | 0.00 | 90 | 1011.7 |
| 20260503013407 | 56 | 134 | 1.0 | 2.0 | 0.00 | 0.00 | 0.00 | 89 | 1011.5 |
| 20260503012407 | 57 | 135 | 1.0 | 2.0 | 0.00 | 0.00 | 0.00 | 89 | 1011.8 |
| 20260503011407 | 57 | 136 | 1.0 | 2.0 | 0.00 | 0.00 | 0.00 | 89 | 1012.1 |
| 20260503010407 | 57 | 136 | 1.0 | 3.0 | 0.00 | 0.00 | 0.00 | 89 | 1012.2 |
| 20260503004407 | 57 | 136 | 1.0 | 2.0 | 0.00 | 0.00 | 0.00 | 87 | 1012.6 |
| 20260503003407 | 58 | 136 | 1.0 | 3.0 | 0.00 | 0.00 | 0.00 | 86 | 1012.8 |
| 20260503002406 | 58 | 134 | 1.0 | 2.0 | 0.00 | 0.00 | 0.00 | 86 | 1012.8 |
| 20260503001407 | 58 | 137 | 2.0 | 4.0 | 0.00 | 0.00 | 0.00 | 86 | 1012.9 |
| 20260503000408 | 58 | 57 | 1.0 | 5.0 | 0.00 | 0.00 | 0.00 | 85 | 1012.6 |
| 20260502235407 | 58 | 88 | 3.0 | 7.0 | 0.00 | 0.00 | 0.00 | 85 | 1012.5 |
| 20260502234408 | 58 | 43 | 2.0 | 4.0 | 0.00 | 0.00 | 0.00 | 84 | 1012.5 |
| 20260502233407 | 58 | 82 | 2.0 | 7.0 | 0.00 | 0.00 | 0.00 | 83 | 1012.8 |
| 20260502232407 | 58 | 31 | 2.0 | 4.0 | 0.00 | 0.00 | 0.00 | 82 | 1012.9 |
| 20260502231407 | 58 | 59 | 2.0 | 5.0 | 0.00 | 0.00 | 0.00 | 82 | 1013.1 |
| 20260502230406 | 58 | 35 | 2.0 | 3.0 | 0.00 | 0.00 | 0.00 | 82 | 1013.3 |
| 20260502225407 | 58 | 11 | 2.0 | 4.0 | 0.00 | 0.00 | 0.00 | 82 | 1013.6 |
| 20260502224406 | 58 | 360 | 2.0 | 4.0 | 0.00 | 0.00 | 0.00 | 83 | 1013.9 |
| 20260502223407 | 58 | 345 | 2.0 | 4.0 | 0.00 | 0.00 | 0.00 | 84 | 1014.0 |